Location: Unspecified
(0.0000°N, 0.0000°E)
Time: 05:06:00
(UTC+00:00)

Transit 4A - Pass Details

Date: 07 October 2020
Orbit: 862 x 982 km, 66.8° (Epoch: 28 October)

Event Time Altitude Azimuth Distance (km) Brightness Sun altitude
Rises 18:52:13 0° 214° (SW) 3,473 11.5 -16.1°
Reaches altitude 10° 18:54:49 10° 221° (SW) 2,547 10.9 -16.7°
Maximum altitude 19:00:18 41° 290° (WNW) 1,290 9.1 -18.1°
Drops below altitude 10° 19:05:57 10° 359° (N) 2,613 10.2 -19.5°
Sets 19:08:39 0° 6° (N) 3,573 10.8 -20.1°
